Temperature
20 18 18 19 19 20 19 19 18 19 19 18 18 17 17 17 17 17 17 17 17 18 18 18 18 18 18 17 17 17 17 16 16 16 16 16 16 16 16 15 15 15 15 15
18 18 19 20 20 19 19 18 18 18 19 18 17 17 17 17 17 17 17 17 17 18 18 18 18 18 17 17 17 17 17 16 16 16 16 16 16 16 16 15 15 15 15 15
19 20 20 20 20 19 19 19 18 18 18 18 18 17 17 17 17 17 17 17 17 18 18 17 17 18 17 17 17 17 17 16 16 16 16 16 16 16 16 15 15 15 15 15
19 20 20 20 20 19 19 19 19 19 17 16 17 16 16 16 16 16 17 17 17 17 17 18 17 17 17 17 17 17 17 16 16 16 16 16 16 16 16 15 15 15 15 15
19 20 20 20 20 20 19 19 18 18 17 16 16 16 16 15 16 16 16 17 17 18 18 18 18 18 17 17 17 17 17 16 16 16 16 16 16 16 16 15 15 15 15 15
19 20 20 20 20 19 19 18 17 15 15 16 16 16 16 15 16 17 17 17 18 18 18 18 18 18 17 17 17 17 17 16 16 16 16 16 16 16 16 16 15 15 15 15
19 19 20 20 19 19 18 17 16 16 15 16 16 16 16 17 17 17 17 17 18 18 18 18 18 18 17 17 17 17 17 17 16 16 16 16 16 16 16 16 15 15 15 15
18 18 19 19 19 19 18 17 16 16 16 15 16 16 17 17 17 18 18 18 18 18 18 18 18 18 18 17 17 17 17 17 16 16 16 16 16 16 16 16 16 15 15 15
17 18 19 20 19 19 18 16 16 15 16 16 16 16 17 18 17 17 17 17 18 18 18 18 18 18 18 18 17 17 17 17 16 16 16 16 16 16 16 16 16 15 15 15
17 18 18 19 19 18 18 16 15 15 16 16 16 16 16 17 17 17 17 17 17 18 18 18 18 18 18 18 18 17 17 17 16 16 16 16 16 16 16 16 16 15 15 15
17 17 17 18 18 18 17 17 15 14 15 15 16 16 17 16 16 16 16 17 18 18 18 18 18 18 18 18 18 17 17 17 16 16 16 16 16 16 16 16 16 15 15 15
16 15 16 17 18 18 18 17 15 16 15 14 15 16 17 16 17 17 17 18 18 18 18 18 18 18 18 18 18 17 17 17 17 17 16 16 16 16 16 16 16 15 15 15
16 15 15 16 17 17 18 17 16 14 14 13 15 16 17 16 16 17 17 17 18 18 18 18 18 18 18 18 18 17 17 17 17 17 17 16 16 16 16 16 16 15 15 15
16 15 15 16 16 16 17 17 16 15 14 14 15 16 17 16 16 16 17 17 17 17 17 18 18 18 18 18 18 17 17 17 17 17 17 16 16 16 16 16 16 15 15 15
15 15 16 16 17 17 17 17 16 16 15 15 16 16 16 16 16 17 17 17 17 17 17 17 17 18 17 17 17 17 17 17 17 17 17 16 16 16 16 16 15 15 15 15
14 15 16 16 17 17 17 17 17 17 16 16 16 16 16 17 17 17 17 16 16 17 17 17 17 17 17 17 17 17 17 17 17 16 16 16 16 16 16 16 15 15 15 15
13 14 15 15 16 17 16 17 17 17 16 16 16 16 16 16 16 17 17 17 17 17 17 17 17 17 17 17 17 17 17 17 16 16 16 16 16 16 16 16 15 15 15 15
13 13 12 13 15 16 16 17 17 17 16 16 16 16 16 17 17 18 18 18 17 17 17 17 17 17 17 17 17 17 17 17 16 16 16 16 16 16 16 15 15 15 15 15
13 13 12 12 14 15 16 17 16 16 17 16 16 16 16 17 17 17 18 18 18 17 17 17 17 17 17 17 17 17 17 16 16 16 16 16 16 16 15 15 15 15 15 14
12 12 12 12 14 15 16 17 17 17 16 17 16 16 16 16 14 16 18 18 17 17 17 17 17 17 17 17 17 17 16 16 16 16 16 16 16 16 15 15 15 15 14 14
13 12 12 12 13 14 15 16 17 16 16 17 17 16 16 16 16 18 18 18 17 17 17 17 17 17 17 17 16 16 16 16 16 16 16 16 16 15 15 15 15 14 14 14
13 12 12 11 13 14 16 15 15 16 18 18 18 17 17 17 17 17 17 17 17 17 17 17 17 17 17 17 16 16 16 16 16 16 16 16 15 15 15 15 15 14 14 14
12 13 12 12 14 15 16 17 18 18 18 18 18 18 17 17 17 17 17 17 17 17 17 17 17 17 17 16 16 16 16 16 16 16 16 16 15 15 15 15 14 14 14 14
11 12 11 12 13 15 16 17 17 18 18 18 18 18 17 17 17 17 17 17 17 16 16 16 16 16 16 16 16 16 16 16 16 16 16 15 15 15 15 14 14 14 14 14
12 11 11 12 13 15 16 17 17 17 17 17 18 18 17 17 17 17 17 16 16 16 16 16 16 16 16 16 16 16 16 16 16 16 15 15 15 15 14 14 14 14 14 13
11 11 12 13 14 14 16 17 17 17 17 17 17 17 17 17 17 17 16 16 16 16 15 15 15 15 15 15 15 15 15 15 15 15 15 15 15 14 14 14 14 13 13 13
Wind_Speed
5 5 1 3 4 3 2 2 0 3 1 2 2 2 2 3 3 3 3 3 3 4 2 0 2 3 4 4 4 4 4 3 3 3 2 2 2 2 2 4 5 5 5 6
6 2 3 2 2 3 2 2 1 3 2 1 1 3 2 2 4 4 5 5 5 3 1 1 2 3 4 4 4 4 4 3 3 2 2 2 2 1 1 3 5 5 5 4
3 3 0 3 3 3 1 2 2 1 3 4 3 5 3 2 1 2 3 4 4 5 4 3 4 3 4 3 4 4 3 3 3 3 3 3 3 3 3 3 2 4 4 4
0 2 2 3 1 2 2 3 3 2 3 2 2 3 5 3 2 2 4 4 4 4 4 4 5 5 5 4 3 3 3 3 3 3 4 4 3 2 0 0 1 3 5 4
1 1 2 1 1 2 2 1 3 3 3 2 3 1 6 3 3 4 5 6 5 5 5 5 6 6 5 4 3 3 3 3 3 3 4 4 3 1 1 1 2 3 3 4
1 1 1 1 1 1 3 5 6 5 4 2 2 2 5 3 4 5 4 5 6 6 5 4 4 4 3 3 3 3 3 2 2 3 4 4 4 3 2 2 2 1 1 2
5 4 3 1 3 4 5 6 4 5 4 3 2 1 6 5 4 4 4 4 5 5 5 5 5 5 5 5 4 4 4 3 2 3 3 4 4 4 4 3 2 2 1 1
1 4 3 0 2 2 2 6 5 2 2 4 3 3 5 4 4 2 1 2 3 4 5 6 6 6 5 5 5 5 4 3 3 3 3 3 4 3 2 2 2 3 2 1
4 4 3 1 1 5 4 2 5 5 1 1 4 5 6 4 5 4 2 2 2 3 5 6 5 5 6 6 6 6 5 4 3 3 3 3 3 3 3 3 2 2 2 2
5 2 3 2 4 4 4 6 5 4 2 2 5 4 4 5 4 3 1 1 2 3 3 5 5 5 5 5 5 5 5 5 4 3 3 3 3 3 3 3 3 3 2 2
4 3 3 3 1 2 3 3 4 4 4 4 2 5 4 4 4 3 3 3 3 3 4 5 5 5 4 4 4 4 5 4 4 4 3 3 3 3 3 3 3 3 3 3
3 4 1 4 3 2 4 4 5 4 2 3 3 5 4 3 3 3 3 2 1 2 2 3 4 4 3 4 4 5 5 5 5 4 4 3 3 3 3 3 3 3 3 3
4 5 2 5 5 3 1 2 3 5 4 4 3 5 4 3 2 1 2 1 1 1 1 1 2 3 4 4 5 5 5 5 4 4 4 4 3 3 3 3 3 3 3 3
5 4 5 6 6 3 2 2 3 5 3 4 5 6 5 3 3 3 3 2 1 2 2 2 2 4 4 4 5 5 5 4 4 4 4 4 5 5 4 3 3 3 4 4
4 3 3 4 3 3 4 4 4 5 6 6 6 6 7 5 5 4 3 1 1 1 2 3 3 3 3 4 4 4 4 4 4 4 4 5 4 4 4 3 3 3 3 3
3 3 1 2 2 2 4 6 5 6 5 5 4 6 6 3 1 1 2 2 2 3 4 3 3 3 3 4 5 5 5 5 5 5 5 4 4 4 4 4 3 3 3 3
2 4 2 2 3 2 6 7 6 5 4 5 6 7 3 1 3 4 4 4 4 5 4 4 4 5 4 5 5 6 6 5 5 5 5 4 4 4 4 4 4 4 3 3
6 4 3 1 1 5 7 3 5 6 6 6 5 5 4 5 5 4 3 4 4 4 4 4 4 4 4 3 4 4 4 5 6 5 5 5 5 5 4 4 4 4 3 4
5 7 4 3 3 6 7 3 4 5 6 5 6 4 3 2 1 2 2 3 5 5 4 4 5 4 3 3 3 4 4 5 5 6 6 6 7 6 5 5 4 3 4 3
4 4 5 4 3 6 7 4 3 3 5 4 5 5 3 3 0 5 4 3 3 3 3 3 3 2 2 3 3 4 4 4 6 7 7 7 7 7 7 6 5 3 3 3
3 3 4 5 5 7 7 4 3 4 6 3 4 5 5 5 6 5 3 3 3 3 3 2 2 3 4 3 4 4 4 6 6 5 5 6 7 7 7 5 4 4 4 4
7 6 6 5 5 8 4 4 6 7 3 3 4 4 5 5 4 2 2 3 2 2 2 2 2 3 3 3 5 5 5 6 4 4 5 5 6 6 5 6 5 5 5 5
7 8 7 8 8 6 4 6 5 4 4 4 4 4 4 4 4 3 3 2 2 3 2 2 3 2 2 3 5 6 5 3 3 4 5 5 5 5 5 6 6 5 5 5
4 3 4 4 7 6 6 5 4 4 4 4 4 4 4 4 4 3 3 2 2 2 2 2 3 3 2 2 3 4 3 3 4 5 5 5 5 5 5 5 5 5 5 5
6 5 4 6 7 5 6 5 4 3 3 2 2 3 4 5 4 4 3 3 3 2 2 2 3 4 4 3 3 2 2 4 4 4 4 5 5 5 5 4 4 5 5 6
6 7 8 8 8 7 7 6 4 3 4 4 3 3 3 4 5 4 4 4 3 3 2 2 2 2 3 2 2 2 2 4 5 3 4 4 4 5 5 5 3 2 3 5
Wind_Direction
28 65 91 218 191 172 149 135 275 278 270 132 217 267 278 184 173 190 205 209 214 232 253 118 137 138 130 124 122 123 120 115 111 95 92 84 63 22 30 42 59 77 90 104
41 8 255 197 129 103 117 99 337 326 4 122 274 301 282 202 203 201 203 214 215 226 264 154 141 137 141 144 137 133 135 136 137 129 120 115 111 80 48 39 50 59 79 98
147 261 244 117 98 85 37 174 211 239 16 36 32 337 327 300 237 208 209 209 209 208 211 192 174 170 158 163 165 158 154 145 137 129 105 82 64 51 37 29 26 33 66 88
286 308 78 95 103 126 270 252 194 144 83 338 33 319 307 304 302 250 228 214 210 216 209 192 184 182 185 189 174 151 142 137 136 133 129 128 124 119 158 110 51 46 55 68
302 11 89 113 245 158 220 53 90 88 109 38 21 87 300 335 308 272 240 223 217 210 203 198 194 191 189 174 159 150 136 135 136 138 143 136 130 137 106 78 73 55 45 57
299 293 166 197 24 104 116 66 55 50 67 21 299 149 293 283 269 286 252 223 214 205 199 196 193 175 169 154 144 143 139 144 146 147 151 153 155 151 133 119 103 67 36 36
351 343 348 82 45 24 69 79 32 11 18 284 289 182 259 276 266 251 249 227 209 195 189 186 182 179 176 168 166 162 158 166 167 160 165 170 170 169 172 169 156 137 83 21
86 308 304 347 159 163 118 125 144 184 240 289 327 258 267 304 308 284 231 186 173 181 190 194 193 189 187 182 175 172 176 185 182 176 184 180 172 171 180 175 169 168 180 198
165 258 304 315 165 130 115 119 151 132 141 312 301 302 316 3 17 25 60 108 174 196 199 200 195 191 191 188 187 185 183 190 195 193 187 186 184 180 183 182 173 172 182 166
149 209 308 325 61 37 117 135 96 107 129 293 308 307 292 312 320 333 347 238 232 214 206 204 201 199 195 192 187 177 178 190 195 191 189 183 185 188 185 172 177 182 177 152
123 133 326 24 121 187 87 90 101 111 141 152 280 285 250 252 251 254 259 246 224 216 213 207 202 201 194 180 178 181 182 185 187 187 185 173 179 175 166 172 185 182 170 156
122 120 227 270 272 209 159 157 142 144 200 167 183 269 292 264 248 228 250 264 259 232 233 214 198 189 185 186 187 187 188 188 192 184 175 179 173 160 160 177 188 174 170 168
126 107 61 347 342 10 86 145 142 132 126 157 182 265 330 10 20 296 266 290 295 261 268 244 195 196 201 200 196 193 193 194 188 172 170 172 167 177 179 184 181 169 167 163
120 117 163 199 227 227 250 227 167 142 156 204 224 256 302 324 310 296 280 261 231 220 229 232 222 218 213 207 203 200 201 191 179 170 171 178 186 190 192 181 169 168 167 165
103 149 198 230 240 215 233 235 200 193 193 199 233 239 258 253 245 251 258 259 238 240 242 232 228 222 215 211 210 204 201 189 178 172 181 193 192 178 173 171 169 160 159 166
83 133 141 288 289 233 258 253 221 218 210 219 241 256 262 260 234 259 249 229 239 244 243 238 230 222 217 215 210 202 200 189 176 185 196 189 174 170 174 177 167 157 155 148
118 122 105 273 304 343 272 244 217 212 203 185 217 245 261 260 236 234 226 224 230 236 239 233 226 221 221 221 210 204 201 183 177 190 193 182 173 173 180 173 160 165 165 151
147 129 135 172 63 242 246 251 208 208 227 214 230 247 224 231 240 235 216 215 232 239 237 236 235 233 229 220 209 201 183 175 182 190 193 185 176 176 167 157 168 172 158 156
162 147 136 142 210 273 287 258 189 199 248 225 223 244 250 248 19 317 263 226 229 227 224 224 220 220 211 201 199 177 180 182 187 196 199 192 181 177 169 171 180 174 158 162
99 125 135 150 185 238 249 257 221 154 267 247 208 222 222 114 162 267 270 249 247 237 225 223 215 193 192 208 178 163 187 188 205 210 205 192 181 179 182 184 176 161 159 166
114 113 158 180 215 256 253 260 118 159 245 255 201 206 188 189 220 247 262 249 237 231 224 206 190 196 208 192 168 178 192 210 219 209 193 181 181 184 182 171 160 152 150 140
171 167 183 168 202 249 237 148 173 215 234 214 207 204 200 225 246 261 251 247 239 239 228 191 186 215 211 177 173 191 215 225 203 179 178 180 178 178 172 161 157 151 149 145
193 189 184 190 213 240 219 205 222 202 209 218 206 219 205 220 242 252 252 243 235 224 215 195 190 204 207 184 184 202 228 207 176 171 178 180 171 166 159 160 159 151 155 160
242 170 162 227 253 255 260 258 256 225 224 231 217 207 192 212 235 242 244 243 244 234 206 188 178 186 217 215 203 214 210 173 169 175 177 169 164 162 159 160 162 165 173 177
214 169 184 235 257 278 267 244 236 240 246 248 235 204 202 203 225 228 229 231 231 228 210 174 186 202 215 213 215 219 182 154 157 172 171 164 163 162 157 156 164 174 184 181
203 186 190 224 222 206 240 249 236 235 240 230 226 242 228 210 224 230 225 219 208 208 203 188 201 211 215 200 213 211 172 159 153 158 168 168 164 159 157 154 136 123 151 159
Height
1529 1534 1539 1537 1535 1536 1539 1543 1546 1542 1537 1539 1541 1541 1539 1539 1539 1540 1541 1542 1543 1544 1545 1546 1548 1549 1550 1551 1552 1553 1554 1555 1556 1557 1557 1557 1557 1558 1558 1558 1559 1559 1559 1559
1535 1538 1534 1532 1533 1535 1539 1544 1545 1541 1537 1539 1542 1542 1539 1538 1538 1539 1540 1541 1542 1543 1544 1546 1547 1548 1550 1551 1552 1553 1554 1555 1556 1557 1557 1558 1558 1558 1559 1559 1559 1560 1560 1560
1537 1536 1531 1532 1535 1538 1540 1543 1544 1544 1541 1541 1543 1546 1541 1538 1538 1538 1539 1540 1541 1542 1543 1545 1546 1548 1549 1550 1552 1553 1554 1555 1556 1557 1558 1558 1558 1559 1559 1560 1560 1560 1561 1561
1535 1532 1532 1534 1536 1538 1544 1537 1538 1541 1547 1553 1549 1560 1546 1541 1539 1537 1538 1538 1539 1540 1542 1544 1545 1547 1549 1550 1552 1553 1554 1555 1556 1557 1558 1558 1558 1559 1559 1560 1560 1561 1561 1561
1536 1533 1534 1536 1536 1535 1538 1536 1538 1542 1547 1554 1554 1559 1553 1543 1541 1537 1536 1536 1538 1539 1541 1543 1544 1546 1548 1550 1552 1553 1554 1555 1556 1557 1558 1558 1559 1559 1560 1560 1561 1561 1562 1562
1534 1532 1532 1533 1533 1534 1535 1539 1544 1550 1554 1564 1557 1560 1557 1546 1540 1536 1534 1534 1536 1538 1540 1542 1544 1546 1548 1550 1551 1553 1554 1555 1556 1557 1557 1558 1559 1559 1560 1561 1561 1562 1562 1562
1539 1535 1532 1532 1535 1536 1538 1550 1564 1566 1571 1568 1556 1558 1554 1539 1535 1534 1533 1533 1534 1536 1538 1540 1542 1544 1546 1548 1550 1552 1553 1554 1555 1556 1557 1558 1559 1559 1560 1561 1562 1562 1563 1563
1548 1548 1536 1533 1535 1540 1542 1548 1566 1573 1574 1569 1557 1558 1546 1535 1533 1532 1531 1532 1534 1536 1538 1539 1541 1543 1545 1547 1549 1551 1553 1554 1555 1556 1557 1558 1558 1559 1560 1561 1562 1562 1563 1563
1548 1547 1534 1532 1532 1535 1543 1549 1550 1562 1565 1569 1562 1552 1541 1534 1532 1532 1531 1532 1533 1535 1537 1539 1541 1542 1544 1546 1548 1550 1551 1553 1554 1555 1556 1557 1558 1559 1560 1561 1561 1562 1563 1563
1539 1546 1538 1534 1533 1536 1538 1544 1555 1562 1571 1574 1565 1559 1553 1540 1536 1533 1532 1532 1533 1535 1536 1538 1540 1541 1543 1545 1547 1549 1550 1552 1553 1555 1555 1556 1557 1558 1559 1560 1561 1562 1562 1563
1536 1545 1544 1539 1540 1542 1543 1547 1553 1561 1563 1572 1573 1564 1541 1538 1535 1534 1533 1532 1532 1534 1535 1536 1538 1540 1542 1544 1545 1547 1549 1550 1552 1553 1554 1555 1556 1558 1558 1559 1560 1561 1562 1562
1537 1546 1551 1544 1537 1536 1538 1543 1551 1560 1564 1566 1569 1562 1535 1534 1533 1532 1532 1532 1532 1534 1535 1535 1537 1539 1540 1542 1543 1545 1547 1548 1550 1552 1553 1554 1555 1556 1557 1558 1559 1560 1561 1561
1536 1546 1556 1553 1549 1542 1541 1542 1545 1551 1560 1566 1567 1556 1534 1533 1532 1532 1532 1532 1532 1533 1534 1535 1536 1537 1539 1540 1542 1543 1545 1547 1548 1550 1551 1553 1554 1555 1556 1556 1557 1558 1559 1560
1532 1544 1552 1556 1552 1545 1544 1542 1544 1548 1558 1560 1557 1548 1537 1534 1533 1532 1532 1532 1532 1533 1533 1533 1534 1536 1537 1538 1540 1542 1543 1545 1546 1548 1550 1551 1552 1553 1554 1555 1556 1557 1558 1559
1532 1542 1542 1542 1540 1540 1540 1540 1541 1543 1546 1551 1546 1543 1536 1533 1532 1531 1531 1531 1531 1531 1532 1532 1533 1534 1535 1536 1538 1539 1541 1543 1544 1546 1547 1549 1550 1552 1553 1553 1554 1556 1557 1558
1534 1541 1541 1542 1539 1539 1539 1537 1537 1538 1539 1540 1539 1538 1530 1530 1530 1530 1529 1529 1529 1529 1530 1530 1531 1532 1533 1534 1535 1537 1539 1540 1542 1544 1545 1547 1548 1550 1551 1552 1553 1554 1555 1556
1537 1541 1547 1549 1542 1539 1543 1534 1533 1533 1533 1535 1537 1533 1528 1529 1528 1528 1528 1528 1528 1528 1528 1528 1528 1529 1531 1532 1533 1535 1536 1538 1540 1541 1543 1545 1546 1548 1549 1550 1551 1552 1553 1554
1536 1542 1549 1551 1546 1551 1537 1526 1526 1528 1528 1528 1527 1526 1525 1525 1525 1525 1525 1525 1525 1526 1526 1526 1527 1528 1529 1530 1531 1533 1534 1535 1537 1539 1541 1542 1544 1545 1547 1548 1549 1550 1551 1552
1530 1538 1549 1553 1552 1545 1533 1525 1525 1527 1527 1523 1524 1523 1523 1523 1523 1524 1524 1524 1524 1525 1525 1525 1526 1526 1527 1528 1529 1530 1532 1533 1535 1536 1538 1539 1541 1543 1544 1545 1546 1547 1548 1549
1531 1534 1545 1551 1549 1548 1532 1521 1520 1524 1528 1520 1520 1521 1521 1522 1527 1523 1522 1522 1522 1522 1523 1524 1524 1525 1525 1526 1527 1528 1529 1530 1531 1533 1535 1537 1538 1540 1541 1543 1544 1545 1546 1547
1535 1539 1544 1547 1546 1538 1523 1519 1520 1533 1529 1518 1517 1518 1519 1520 1520 1520 1519 1520 1520 1520 1521 1521 1522 1523 1523 1524 1525 1526 1526 1527 1528 1530 1532 1534 1536 1537 1539 1540 1541 1543 1544 1545
1531 1537 1541 1544 1544 1537 1517 1518 1521 1520 1516 1515 1515 1515 1516 1516 1517 1517 1517 1517 1517 1517 1518 1518 1519 1520 1521 1522 1522 1523 1524 1525 1526 1527 1529 1531 1532 1534 1536 1537 1539 1540 1541 1542
1524 1523 1526 1528 1526 1516 1514 1513 1514 1514 1514 1513 1513 1513 1514 1514 1514 1515 1515 1515 1515 1515 1515 1516 1516 1517 1518 1519 1519 1520 1521 1522 1523 1524 1526 1527 1529 1531 1533 1534 1536 1537 1538 1539
1517 1516 1519 1520 1515 1512 1511 1511 1511 1512 1511 1511 1511 1511 1512 1512 1512 1512 1513 1513 1512 1512 1513 1513 1514 1514 1515 1516 1516 1517 1518 1519 1520 1521 1523 1524 1526 1528 1530 1531 1533 1534 1535 1536
1511 1513 1515 1515 1511 1509 1508 1508 1509 1509 1509 1509 1510 1510 1510 1510 1510 1510 1510 1510 1510 1510 1510 1511 1511 1511 1512 1513 1513 1514 1515 1516 1517 1518 1519 1521 1522 1524 1526 1528 1529 1530 1532 1533
1506 1508 1511 1509 1505 1505 1504 1505 1506 1506 1506 1506 1507 1507 1507 1508 1508 1508 1508 1508 1507 1507 1508 1508 1508 1509 1509 1510 1511 1511 1512 1513 1514 1515 1516 1518 1519 1521 1523 1525 1526 1528 1529 1530